Weather History for St-Nazaire, France

Change the Weather History Date:

Saturday, October 27, 2012

  Actual Average Record
Temperature  
Mean Temperature 46 °F -  
Max Temperature 50 °F 54 °F 71 °F (2005)
Min Temperature 41 °F 43 °F 30 °F (2003)
Degree Days  
Heating Degree Days 19    
Moisture  
Dew Point 36 °F    
Average Humidity 67    
Maximum Humidity 81    
Minimum Humidity 50    
Precipitation  
Precipitation 0.00 in - - ()
Sea Level Pressure  
Sea Level Pressure 29.92 in    
Wind  
Wind Speed 13 mph ()    
Max Wind Speed 24 mph    
Max Gust Speed 36 mph    
Visibility 6.2 miles    
Events      
Averages and records for this station are not official NWS values.
T = Trace of Precipitation, MM = Missing Value Source: Averaged Metar Reports

Daily Weather History Graph

Daily Weather History Graph

Search for Another Location

Airport:

Trip Planner

Search our weather history database for the weather conditions in past years. The results will help you decide how hot, cold, wet, or windy it might be!

Date:

Astronomy

Oct. 27, 2012 Rise Set
Actual Time 8:44 AM CEST 6:59 PM CEST
Civil Twilight 8:13 AM CEST 7:30 PM CEST
Nautical Twilight 7:37 AM CEST 8:06 PM CEST
Astronomical Twilight 7:01 AM CEST 8:42 PM CEST
Moon 5:43 PM CEST (10/27) 6:18 AM CEST (10/27)
Length of Visible Light 11h 17m
Length of Day
10h 14m
Waxing Gibbous, 95% of the Moon is Illuminated
Oct 27
Waxing Gibbous
Oct 29
Full
Nov 7
Last Quarter
Nov 13
New
Nov 20
First Quarter

Hourly Weather History & Observations

Time (CEST) Temp. Windchill Dew Point Humidity Pressure Visibility Wind Dir Wind Speed Gust Speed Precip Events Conditions
12:00 AM 50.0 °F - 41.0 °F 71% 29.65 in 6.2 mi NNE 17.3 mph - N/A   Overcast
12:30 AM 50.0 °F - 37.4 °F 62% 29.65 in 6.2 mi NNE 16.1 mph - N/A   Overcast
1:00 AM 48.2 °F - 35.6 °F 62% 29.68 in 6.2 mi NNE 17.3 mph - N/A   Overcast
1:30 AM 48.2 °F - 35.6 °F 62% 29.68 in 6.2 mi NNE 18.4 mph - N/A   Unknown
2:00 AM 48.2 °F - 35.6 °F 62% 29.71 in 6.2 mi NNE 13.8 mph - N/A   Overcast
2:30 AM 46.4 °F 40.7 °F 35.6 °F 66% 29.71 in 6.2 mi NNE 12.7 mph - N/A   Unknown
3:00 AM 46.4 °F 41.9 °F 37.4 °F 71% 29.71 in 6.2 mi NNE 9.2 mph - N/A   Mostly Cloudy
3:30 AM 46.4 °F 41.9 °F 37.4 °F 71% 29.74 in 6.2 mi North 9.2 mph - N/A   Overcast
4:00 AM 46.4 °F 41.1 °F 39.2 °F 76% 29.74 in 6.2 mi North 11.5 mph - N/A   Overcast
4:30 AM 46.4 °F 41.1 °F 41.0 °F 81% 29.74 in 6.2 mi North 11.5 mph - N/A   Overcast
5:00 AM 46.4 °F 41.9 °F 41.0 °F 81% 29.74 in 6.2 mi North 9.2 mph - N/A   Overcast
5:30 AM 44.6 °F 39.7 °F 39.2 °F 81% 29.74 in 6.2 mi North 9.2 mph - N/A   Partly Cloudy
6:00 AM 44.6 °F 38.4 °F 39.2 °F 81% 29.77 in 6.2 mi North 12.7 mph - N/A   Unknown
6:30 AM 44.6 °F 38.1 °F 37.4 °F 76% 29.77 in 6.2 mi North 13.8 mph 25.3 mph N/A   Mostly Cloudy
7:00 AM 44.6 °F 37.8 °F 37.4 °F 76% 29.80 in 6.2 mi NNE 15.0 mph - N/A   Mostly Cloudy
7:30 AM 44.6 °F 38.4 °F 37.4 °F 76% 29.83 in 6.2 mi NNE 12.7 mph - N/A   Overcast
8:00 AM 44.6 °F 36.6 °F 35.6 °F 71% 29.83 in 6.2 mi North 19.6 mph - N/A   Overcast
8:30 AM 44.6 °F 37.2 °F 33.8 °F 66% 29.86 in 6.2 mi North 17.3 mph - N/A   Overcast
9:00 AM 42.8 °F 36.2 °F 33.8 °F 70% 29.86 in 6.2 mi North 12.7 mph - N/A   Unknown
9:30 AM 42.8 °F 37.5 °F 35.6 °F 76% 29.89 in 6.2 mi North 9.2 mph - N/A   Mostly Cloudy
10:00 AM 44.6 °F 38.4 °F 35.6 °F 71% 29.89 in 6.2 mi North 12.7 mph 24.2 mph N/A   Partly Cloudy
10:30 AM 44.6 °F 37.2 °F 33.8 °F 66% 29.92 in 6.2 mi North 17.3 mph - N/A   Unknown
11:00 AM 46.4 °F 39.8 °F 33.8 °F 62% 29.95 in 6.2 mi North 16.1 mph - N/A   Partly Cloudy
11:30 AM 46.4 °F 39.0 °F 32.0 °F 57% 29.95 in 6.2 mi NNE 19.6 mph 32.2 mph N/A   Mostly Cloudy
12:00 PM 46.4 °F 39.5 °F 33.8 °F 62% 29.95 in 6.2 mi North 17.3 mph - N/A   Mostly Cloudy
12:30 PM 46.4 °F 39.2 °F 33.8 °F 62% 29.98 in 6.2 mi North 18.4 mph - N/A   Mostly Cloudy
1:00 PM 48.2 °F - 30.2 °F 50% 29.98 in 6.2 mi NNE 24.2 mph 35.7 mph N/A   Mostly Cloudy
1:30 PM 48.2 °F - 32.0 °F 54% 29.98 in 6.2 mi North 21.9 mph - N/A   Mostly Cloudy
2:00 PM 48.2 °F - 33.8 °F 58% 29.98 in 6.2 mi North 20.7 mph 32.2 mph N/A   Partly Cloudy
2:30 PM 50.0 °F - 33.8 °F 54% 30.01 in 6.2 mi NNE 17.3 mph 29.9 mph N/A   Mostly Cloudy
3:00 PM 50.0 °F - 33.8 °F 54% 30.01 in 6.2 mi NNE 17.3 mph - N/A   Mostly Cloudy
3:30 PM 50.0 °F - 33.8 °F 54% 30.01 in 6.2 mi North 19.6 mph - N/A   Mostly Cloudy
4:00 PM 50.0 °F - 32.0 °F 50% 30.04 in 6.2 mi NNE 18.4 mph - N/A   Partly Cloudy
4:30 PM 50.0 °F - 35.6 °F 58% 30.04 in 6.2 mi NNE 15.0 mph - N/A   Partly Cloudy
5:00 PM 50.0 °F - 33.8 °F 54% 30.04 in 6.2 mi NNE 15.0 mph - N/A   Unknown
5:30 PM 50.0 °F - 35.6 °F 58% 30.04 in 6.2 mi North 12.7 mph - N/A   Partly Cloudy
6:00 PM 50.0 °F - 35.6 °F 58% 30.06 in 6.2 mi North 10.4 mph - N/A   Unknown
6:30 PM 48.2 °F - 33.8 °F 58% 30.06 in 6.2 mi NNW 11.5 mph - N/A   Partly Cloudy
7:00 PM 46.4 °F 41.1 °F 33.8 °F 62% 30.06 in 6.2 mi North 11.5 mph - N/A   Partly Cloudy
7:30 PM 46.4 °F 41.1 °F 33.8 °F 62% 30.09 in 6.2 mi NNW 11.5 mph - N/A   Unknown
8:00 PM 44.6 °F 39.2 °F 35.6 °F 71% 30.09 in 6.2 mi NNW 10.4 mph - N/A   Unknown
8:30 PM 44.6 °F 39.7 °F 35.6 °F 71% 30.09 in 6.2 mi NNW 9.2 mph - N/A   Unknown
9:00 PM 44.6 °F 39.7 °F 35.6 °F 71% 30.09 in 6.2 mi NNW 9.2 mph - N/A   Unknown
9:30 PM 42.8 °F 39.3 °F 35.6 °F 76% 30.12 in 6.2 mi NNW 5.8 mph - N/A   Unknown
10:00 PM 42.8 °F 38.0 °F 35.6 °F 76% 30.12 in 6.2 mi NNW 8.1 mph - N/A   Unknown
10:30 PM 42.8 °F 37.0 °F 35.6 °F 76% 30.12 in 6.2 mi NNW 10.4 mph - N/A   Partly Cloudy
11:00 PM 42.8 °F 38.0 °F 35.6 °F 76% 30.12 in 6.2 mi WNW 8.1 mph - N/A   Unknown
11:30 PM 41.0 °F 35.8 °F 35.6 °F 81% 30.12 in 6.2 mi NW 8.1 mph - N/A   Unknown